Change the Weather History Date:

Wednesday, January 2, 2013

  Actual Average Record
Temperature  
Mean Temperature 48 °F -  
Max Temperature 55 °F 56 °F 74 °F (1985)
Min Temperature 41 °F 37 °F 20 °F (1969)
Degree Days  
Heating Degree Days 17    
Moisture  
Dew Point 46 °F    
Average Humidity 92    
Maximum Humidity 100    
Minimum Humidity 79    
Precipitation  
Precipitation 0.24 in - - ()
Sea Level Pressure  
Sea Level Pressure 30.01 in    
Wind  
Wind Speed 7 mph (NNE)    
Max Wind Speed 17 mph    
Max Gust Speed 21 mph    
Visibility 6 miles    
Events Rain    
Averages and records for this station are not official NWS values.
T = Trace of Precipitation, MM = Missing Value Source: NWS Daily Summary

Daily Weather History Graph

Daily Weather History Graph

Search for Another Location

Airport or City:

Trip Planner

Search our weather history database for the weather conditions in past years. The results will help you decide how hot, cold, wet, or windy it might be!

Date:

Astronomy

Jan. 02, 2013 Rise Set
Actual Time 7:14 AM EST 5:07 PM EST
Civil Twilight 6:46 AM EST 5:35 PM EST
Nautical Twilight 6:14 AM EST 6:07 PM EST
Astronomical Twilight 5:44 AM EST 6:37 PM EST
Moon 10:23 PM EST (1/2) 10:07 AM EST (1/2)
Length of Visible Light 10h 49m
Length of Day
9h 53m
Waning Gibbous, 75% of the Moon is Illuminated
Jan 2
Waning Gibbous
Jan 4
Last Quarter
Jan 11
New
Jan 18
First Quarter
Jan 26
Full

Hourly Weather History & Observations

Time (EST) Temp. Windchill Dew Point Humidity Pressure Visibility Wind Dir Wind Speed Gust Speed Precip Events Conditions
12:58 AM 55.0 °F - 53.1 °F 93% 29.95 in 7.0 mi NNW 3.5 mph - N/A   Overcast
1:07 AM 53.6 °F - 53.6 °F 100% 29.94 in 7.0 mi North 3.5 mph - N/A   Overcast
1:40 AM 53.6 °F - 53.6 °F 100% 29.92 in 7.0 mi Calm Calm - N/A   Overcast
1:58 AM 54.0 °F - 53.1 °F 97% 29.94 in 7.0 mi Calm Calm - N/A   Overcast
2:27 AM 53.6 °F - 51.8 °F 94% 29.93 in 6.0 mi NE 4.6 mph - N/A   Overcast
2:38 AM 53.6 °F - 53.6 °F 100% 29.93 in 4.0 mi NNE 4.6 mph - N/A   Overcast
2:58 AM 54.0 °F - 53.1 °F 97% 29.94 in 3.0 mi Calm Calm - 0.01 in Rain Light Rain
3:09 AM 53.6 °F - 53.6 °F 100% 29.92 in 3.0 mi NE 3.5 mph - 0.00 in Rain Light Rain
3:58 AM 53.1 °F - 52.0 °F 96% 29.92 in 4.0 mi NE 4.6 mph - 0.01 in Rain Light Rain
4:50 AM 53.6 °F - 51.8 °F 94% 29.93 in 2.5 mi NNE 5.8 mph - 0.04 in Rain Light Rain
4:58 AM 53.1 °F - 52.0 °F 96% 29.93 in 2.5 mi NNE 12.7 mph 17.3 mph 0.06 in Rain Rain
5:33 AM 50.0 °F - 48.2 °F 94% 29.93 in 4.0 mi NE 9.2 mph - 0.07 in Rain Rain
5:43 AM 50.0 °F - 48.2 °F 94% 29.94 in 3.0 mi NE 8.1 mph - 0.08 in Rain Rain
5:58 AM 48.9 °F - 48.0 °F 97% 29.94 in 3.0 mi NNE 9.2 mph - 0.10 in Rain Light Rain
6:14 AM 48.2 °F - 48.2 °F 100% 29.94 in 3.0 mi NE 8.1 mph - 0.01 in Rain Light Rain
6:37 AM 48.2 °F - 46.4 °F 93% 29.94 in 2.5 mi NE 8.1 mph - 0.04 in Rain Light Rain
6:44 AM 48.2 °F - 46.4 °F 93% 29.93 in 4.0 mi NE 8.1 mph - 0.04 in Rain Light Rain
7:58 AM 48.0 °F - 46.9 °F 96% 29.96 in 6.0 mi NE 6.9 mph - 0.01 in Rain Light Rain
8:19 AM 48.2 °F - 46.4 °F 93% 29.97 in 2.5 mi NE 6.9 mph - 0.01 in Rain Light Rain
8:27 AM 48.2 °F - 46.4 °F 93% 29.99 in 4.0 mi NNE 11.5 mph - 0.01 in Rain Light Rain
8:39 AM 48.2 °F - 46.4 °F 93% 29.99 in 1.8 mi NNE 11.5 mph 19.6 mph 0.02 in Rain Rain
8:58 AM 48.0 °F - 46.0 °F 93% 30.00 in 2.5 mi NNE 11.5 mph 17.3 mph 0.04 in Rain Light Rain
9:05 AM 48.2 °F - 46.4 °F 93% 30.01 in 4.0 mi NNE 13.8 mph - 0.00 in Rain Light Rain
9:37 AM 48.2 °F - 46.4 °F 93% 30.02 in 5.0 mi NNE 12.7 mph 20.7 mph 0.00 in Rain Light Rain
9:58 AM 48.0 °F - 46.0 °F 93% 30.02 in 5.0 mi NNE 11.5 mph - 0.00 in Rain Light Rain
10:58 AM 48.0 °F - 46.0 °F 93% 30.03 in 10.0 mi NNE 9.2 mph - 0.00 in   Overcast
11:58 AM 48.9 °F - 46.0 °F 90% 30.02 in 10.0 mi NNE 6.9 mph - 0.00 in   Overcast
12:24 PM 50.0 °F - 46.4 °F 87% 30.02 in 10.0 mi NNE 12.7 mph - N/A   Overcast
12:46 PM 50.0 °F - 46.4 °F 87% 30.01 in 10.0 mi NE 12.7 mph - N/A   Overcast
12:58 PM 50.0 °F - 46.0 °F 86% 30.01 in 10.0 mi NNE 12.7 mph - N/A   Overcast
1:18 PM 46.4 °F 39.5 °F 44.6 °F 93% 30.02 in 10.0 mi NNE 17.3 mph - 0.01 in   Overcast
1:58 PM 46.0 °F 39.3 °F 44.1 °F 93% 30.03 in 10.0 mi NNE 16.1 mph - 0.01 in   Overcast
2:58 PM 45.0 °F 38.9 °F 42.1 °F 90% 30.06 in 9.0 mi NNE 12.7 mph - N/A   Overcast
3:58 PM 45.0 °F 40.1 °F 42.1 °F 90% 30.08 in 9.0 mi NNE 9.2 mph - N/A   Overcast
4:58 PM 45.0 °F 40.1 °F 41.0 °F 86% 30.11 in 9.0 mi NNE 9.2 mph - N/A   Overcast
5:58 PM 44.1 °F 40.1 °F 39.9 °F 85% 30.12 in 9.0 mi NNE 6.9 mph - N/A   Overcast
6:08 PM 44.6 °F 39.7 °F 39.2 °F 81% 30.12 in 9.0 mi NNE 9.2 mph - N/A   Overcast
6:58 PM 44.1 °F 38.6 °F 39.9 °F 85% 30.14 in 9.0 mi NNE 10.4 mph - N/A   Overcast
7:58 PM 42.1 °F 37.1 °F 37.0 °F 82% 30.16 in 10.0 mi NNE 8.1 mph - N/A   Clear
8:58 PM 42.1 °F 36.6 °F 36.0 °F 79% 30.17 in 10.0 mi NNE 9.2 mph - N/A   Clear
9:58 PM 41.0 °F 37.1 °F 36.0 °F 82% 30.17 in 10.0 mi NE 5.8 mph - N/A   Clear
10:58 PM 41.0 °F 35.2 °F 36.0 °F 82% 30.17 in 10.0 mi NNE 9.2 mph - N/A   Clear
11:58 PM 41.0 °F 35.8 °F 35.1 °F 79% 30.17 in 10.0 mi NNE 8.1 mph - N/A   Clear